Time,TemperatureF,DewpointF,PressureIn,WindDirection,WindDirectionDegrees,WindSpeedMPH,WindSpeedGustMPH,Humidity,HourlyPrecipIn,Conditions,Clouds,dailyrainin,SoftwareType,DateUTC
2013-06-14 00:01:00,75.9,62.0,29.92,East,84,0.0,0.0,62,0.00,,,0.00,VWS V13.01,2013-06-14 05:01:00,
2013-06-14 00:06:00,75.7,61.8,29.92,East,84,0.0,0.0,62,0.00,,,0.00,VWS V13.01,2013-06-14 05:06:00,
2013-06-14 00:11:00,75.5,62.5,29.92,East,84,0.0,0.0,64,0.00,,,0.00,VWS V13.01,2013-06-14 05:11:00,
2013-06-14 00:16:00,75.2,62.6,29.92,East,84,0.0,0.0,65,0.00,,,0.00,VWS V13.01,2013-06-14 05:16:00,
2013-06-14 00:21:00,74.6,63.0,29.92,East,84,0.0,0.0,67,0.00,,,0.00,VWS V13.01,2013-06-14 05:21:00,
2013-06-14 00:26:00,73.9,63.1,29.92,NE,35,0.0,0.0,69,0.00,,,0.00,VWS V13.01,2013-06-14 05:26:00,
2013-06-14 00:31:00,73.4,63.4,29.95,NNE,26,0.0,0.0,71,0.00,,,0.00,VWS V13.01,2013-06-14 05:31:00,
2013-06-14 00:36:00,73.0,63.1,29.95,NNE,26,0.0,0.0,71,0.00,,,0.00,VWS V13.01,2013-06-14 05:36:00,
2013-06-14 00:41:00,72.7,62.7,29.95,NNE,26,0.0,0.0,71,0.00,,,0.00,VWS V13.01,2013-06-14 05:41:00,
2013-06-14 00:46:00,72.3,62.4,29.92,NNE,26,0.0,0.0,71,0.00,,,0.00,VWS V13.01,2013-06-14 05:46:00,
2013-06-14 00:51:00,72.3,63.6,29.92,NNE,26,0.0,0.0,74,0.00,,,0.00,VWS V13.01,2013-06-14 05:51:00,
2013-06-14 00:56:00,72.1,63.4,29.92,NNE,26,0.0,0.0,74,0.00,,,0.00,VWS V13.01,2013-06-14 05:56:00,
2013-06-14 01:01:00,71.9,63.2,29.92,NNE,26,0.0,0.0,74,0.00,,,0.00,VWS V13.01,2013-06-14 06:01:00,
2013-06-14 01:06:00,71.8,63.0,29.92,NNE,26,0.0,0.0,74,0.00,,,0.00,VWS V13.01,2013-06-14 06:06:00,
2013-06-14 01:11:00,71.8,63.4,29.92,NNE,26,0.0,0.0,75,0.00,,,0.00,VWS V13.01,2013-06-14 06:11:00,
2013-06-14 01:16:00,71.4,63.5,29.92,NNE,26,0.0,0.0,76,0.00,,,0.00,VWS V13.01,2013-06-14 06:16:00,
2013-06-14 01:21:00,71.2,63.7,29.92,NNE,26,0.0,0.0,77,0.00,,,0.00,VWS V13.01,2013-06-14 06:21:00,
2013-06-14 01:26:00,71.0,63.8,29.92,NNE,26,0.0,0.0,78,0.00,,,0.00,VWS V13.01,2013-06-14 06:26:00,
2013-06-14 01:31:00,70.9,63.7,29.92,NNE,26,0.0,0.0,78,0.00,,,0.00,VWS V13.01,2013-06-14 06:31:00,
2013-06-14 01:35:00,70.9,63.7,29.92,NNE,26,0.0,0.0,78,0.00,,,0.00,VWS V13.01,2013-06-14 06:35:00,
2013-06-14 01:40:00,70.9,63.7,29.92,NNE,26,0.0,0.0,78,0.00,,,0.00,VWS V13.01,2013-06-14 06:40:00,
2013-06-14 01:45:00,70.7,63.9,29.95,NNE,26,0.0,0.0,79,0.00,,,0.00,VWS V13.01,2013-06-14 06:45:00,
2013-06-14 01:50:00,70.5,64.0,29.95,NNE,26,0.0,0.0,80,0.00,,,0.00,VWS V13.01,2013-06-14 06:50:00,
2013-06-14 01:55:00,70.3,63.9,29.95,NNE,26,0.0,0.0,80,0.00,,,0.00,VWS V13.01,2013-06-14 06:55:00,
2013-06-14 02:00:00,70.3,64.2,29.95,NNE,26,0.0,0.0,81,0.00,,,0.00,VWS V13.01,2013-06-14 07:00:00,
2013-06-14 02:05:00,70.3,64.2,29.95,NNE,26,0.0,0.0,81,0.00,,,0.00,VWS V13.01,2013-06-14 07:05:00,
2013-06-14 02:10:00,70.1,64.0,29.95,NNE,26,0.0,0.0,81,0.00,,,0.00,VWS V13.01,2013-06-14 07:10:00,
2013-06-14 02:15:00,70.1,64.4,29.92,NNE,26,0.0,0.0,82,0.00,,,0.00,VWS V13.01,2013-06-14 07:15:00,
2013-06-14 02:20:00,70.0,64.2,29.92,NNE,26,0.0,0.0,82,0.00,,,0.00,VWS V13.01,2013-06-14 07:20:00,
2013-06-14 02:25:00,70.0,64.6,29.92,NNE,26,0.0,0.0,83,0.00,,,0.00,VWS V13.01,2013-06-14 07:25:00,
2013-06-14 02:30:00,69.8,64.7,29.95,NNE,26,0.0,0.0,84,0.00,,,0.00,VWS V13.01,2013-06-14 07:30:00,
2013-06-14 02:35:00,69.6,64.9,29.95,NNE,26,0.0,0.0,85,0.00,,,0.00,VWS V13.01,2013-06-14 07:35:00,
2013-06-14 02:40:00,69.6,64.9,29.95,NNE,26,0.0,0.0,85,0.00,,,0.00,VWS V13.01,2013-06-14 07:40:00,
2013-06-14 02:45:00,69.4,65.1,29.95,NNE,26,0.0,0.0,86,0.00,,,0.00,VWS V13.01,2013-06-14 07:45:00,
2013-06-14 02:50:00,69.4,65.1,29.95,NNE,26,0.0,0.0,86,0.00,,,0.00,VWS V13.01,2013-06-14 07:50:00,
2013-06-14 02:55:00,69.2,64.9,29.95,NNE,26,0.0,0.0,86,0.00,,,0.00,VWS V13.01,2013-06-14 07:55:00,
2013-06-14 03:00:00,69.2,64.9,29.95,NNE,26,0.0,0.0,86,0.00,,,0.00,VWS V13.01,2013-06-14 08:00:00,
2013-06-14 03:05:00,69.2,64.5,29.95,NNE,26,0.0,0.0,85,0.00,,,0.00,VWS V13.01,2013-06-14 08:05:00,
2013-06-14 03:10:00,69.2,64.5,29.95,NNE,26,0.0,0.0,85,0.00,,,0.00,VWS V13.01,2013-06-14 08:10:00,
2013-06-14 03:15:00,69.2,64.9,29.95,NNE,26,0.0,0.0,86,0.00,,,0.00,VWS V13.01,2013-06-14 08:15:00,
2013-06-14 03:20:00,69.2,64.5,29.95,NE,34,0.0,0.0,85,0.00,,,0.00,VWS V13.01,2013-06-14 08:20:00,
2013-06-14 03:25:00,69.1,64.7,29.95,NNE,20,0.0,0.0,86,0.00,,,0.00,VWS V13.01,2013-06-14 08:25:00,
2013-06-14 03:30:00,68.9,64.9,29.95,NNE,21,0.0,0.0,87,0.00,,,0.00,VWS V13.01,2013-06-14 08:30:00,
2013-06-14 03:35:00,68.9,64.5,29.95,North,4,0.0,0.0,86,0.00,,,0.00,VWS V13.01,2013-06-14 08:35:00,
2013-06-14 03:40:00,69.1,64.4,29.95,NNE,23,3.6,3.6,85,0.00,,,0.00,VWS V13.01,2013-06-14 08:40:00,
2013-06-14 03:45:00,69.1,64.4,29.95,NE,35,3.1,3.1,85,0.00,,,0.00,VWS V13.01,2013-06-14 08:45:00,
2013-06-14 03:50:00,69.1,64.4,29.95,NNE,25,3.6,4.0,85,0.00,,,0.00,VWS V13.01,2013-06-14 08:50:00,
2013-06-14 03:55:00,69.1,64.4,29.95,NE,36,3.6,3.6,85,0.00,,,0.00,VWS V13.01,2013-06-14 08:55:00,
2013-06-14 04:00:00,69.4,63.7,29.95,NNE,31,2.7,3.1,82,0.00,,,0.00,VWS V13.01,2013-06-14 09:00:00,
2013-06-14 04:05:00,69.6,63.5,29.95,NE,36,3.6,3.6,81,0.00,,,0.00,VWS V13.01,2013-06-14 09:05:00,
2013-06-14 04:10:00,69.8,63.3,29.95,NNE,22,2.7,2.7,80,0.00,,,0.00,VWS V13.01,2013-06-14 09:10:00,
2013-06-14 04:15:00,70.0,63.2,29.92,NNE,22,0.0,0.0,79,0.00,,,0.00,VWS V13.01,2013-06-14 09:15:00,
2013-06-14 04:20:00,70.1,63.3,29.92,NNE,29,2.2,2.7,79,0.00,,,0.00,VWS V13.01,2013-06-14 09:20:00,
2013-06-14 04:25:00,70.1,63.0,29.92,NNE,25,2.7,3.6,78,0.00,,,0.00,VWS V13.01,2013-06-14 09:25:00,
2013-06-14 04:30:00,70.1,63.0,29.95,NNE,28,2.2,2.2,78,0.00,,,0.00,VWS V13.01,2013-06-14 09:30:00,
2013-06-14 04:35:00,70.1,63.3,29.95,NE,35,2.2,2.2,79,0.00,,,0.00,VWS V13.01,2013-06-14 09:35:00,
2013-06-14 04:40:00,70.1,63.0,29.95,NE,35,0.0,0.0,78,0.00,,,0.00,VWS V13.01,2013-06-14 09:40:00,
2013-06-14 04:45:00,70.1,63.0,29.95,NE,35,0.0,0.0,78,0.00,,,0.00,VWS V13.01,2013-06-14 09:45:00,
2013-06-14 04:50:00,70.0,63.2,29.95,NE,35,0.0,0.0,79,0.00,,,0.00,VWS V13.01,2013-06-14 09:50:00,
2013-06-14 04:55:00,70.0,63.5,29.95,North,2,0.0,0.0,80,0.00,,,0.00,VWS V13.01,2013-06-14 09:55:00,
2013-06-14 05:00:00,70.1,63.7,29.95,NE,35,2.7,3.1,80,0.00,,,0.00,VWS V13.01,2013-06-14 10:00:00,
2013-06-14 05:05:00,70.3,63.5,29.95,NNE,31,2.2,2.2,79,0.00,,,0.00,VWS V13.01,2013-06-14 10:05:00,
2013-06-14 05:10:00,70.3,63.5,29.95,North,6,0.0,0.0,79,0.00,,,0.00,VWS V13.01,2013-06-14 10:10:00,
2013-06-14 05:15:00,70.5,63.3,29.95,NNE,14,2.7,2.7,78,0.00,,,0.00,VWS V13.01,2013-06-14 10:15:00,
2013-06-14 05:20:00,70.5,63.3,29.95,North,360,4.0,4.0,78,0.00,,,0.00,VWS V13.01,2013-06-14 10:20:00,
2013-06-14 05:25:00,70.7,62.8,29.95,North,354,2.2,2.2,76,0.00,,,0.00,VWS V13.01,2013-06-14 10:25:00,
2013-06-14 05:30:00,70.7,62.8,29.98,NNE,14,0.0,2.2,76,0.00,,,0.00,VWS V13.01,2013-06-14 10:30:00,
2013-06-14 05:35:00,70.9,62.5,29.98,NNE,23,2.2,2.2,75,0.00,,,0.00,VWS V13.01,2013-06-14 10:35:00,
2013-06-14 05:40:00,70.7,62.4,29.98,NNE,23,0.0,0.0,75,0.00,,,0.00,VWS V13.01,2013-06-14 10:40:00,
2013-06-14 05:45:00,70.5,63.0,29.98,NNE,28,2.7,3.1,77,0.00,,,0.00,VWS V13.01,2013-06-14 10:45:00,
2013-06-14 05:50:00,70.3,62.8,29.98,NE,40,2.7,2.7,77,0.00,,,0.00,VWS V13.01,2013-06-14 10:50:00,
2013-06-14 05:55:00,70.1,63.0,29.98,NE,35,2.7,2.7,78,0.00,,,0.00,VWS V13.01,2013-06-14 10:55:00,
2013-06-14 06:00:00,70.0,63.2,29.98,NE,35,2.2,2.7,79,0.00,,,0.00,VWS V13.01,2013-06-14 11:00:00,
2013-06-14 06:05:00,69.8,63.0,29.98,NNE,12,2.7,3.6,79,0.00,,,0.00,VWS V13.01,2013-06-14 11:05:00,
2013-06-14 06:10:00,69.8,63.0,29.98,NNE,32,3.1,3.1,79,0.00,,,0.00,VWS V13.01,2013-06-14 11:10:00,
2013-06-14 06:15:00,69.8,63.3,29.98,NNE,31,3.1,3.1,80,0.00,,,0.00,VWS V13.01,2013-06-14 11:15:00,
2013-06-14 06:20:00,69.6,63.2,29.98,NE,37,2.7,3.1,80,0.00,,,0.00,VWS V13.01,2013-06-14 11:20:00,
2013-06-14 06:25:00,69.6,63.5,29.98,North,9,2.7,3.1,81,0.00,,,0.00,VWS V13.01,2013-06-14 11:25:00,
2013-06-14 06:30:00,69.6,63.2,29.98,NNE,20,2.2,2.7,80,0.00,,,0.00,VWS V13.01,2013-06-14 11:30:00,
2013-06-14 06:35:00,69.6,63.2,29.98,NNE,23,2.7,2.7,80,0.00,,,0.00,VWS V13.01,2013-06-14 11:35:00,
2013-06-14 06:40:00,69.8,63.3,29.98,NNE,14,0.0,0.0,80,0.00,,,0.00,VWS V13.01,2013-06-14 11:40:00,
2013-06-14 06:45:00,70.0,63.5,29.98,NNE,12,0.0,0.0,80,0.00,,,0.00,VWS V13.01,2013-06-14 11:45:00,
2013-06-14 06:50:00,70.1,63.3,29.98,NNE,21,2.2,4.0,79,0.00,,,0.00,VWS V13.01,2013-06-14 11:50:00,
2013-06-14 06:55:00,70.3,63.1,29.98,NNE,19,2.2,2.7,78,0.00,,,0.00,VWS V13.01,2013-06-14 11:55:00,
2013-06-14 07:00:00,70.5,63.7,29.98,NNE,24,0.0,0.0,79,0.00,,,0.00,VWS V13.01,2013-06-14 12:00:00,
2013-06-14 07:05:00,70.9,63.7,29.98,North,357,2.2,2.7,78,0.00,,,0.00,VWS V13.01,2013-06-14 12:05:00,
2013-06-14 07:10:00,71.2,63.3,29.98,NNE,33,3.1,3.6,76,0.00,,,0.00,VWS V13.01,2013-06-14 12:10:00,
2013-06-14 07:15:00,71.6,62.9,29.98,NE,42,2.7,4.0,74,0.00,,,0.00,VWS V13.01,2013-06-14 12:15:00,
2013-06-14 07:20:00,71.8,63.0,29.98,NNE,29,2.7,3.6,74,0.00,,,0.00,VWS V13.01,2013-06-14 12:20:00,
2013-06-14 07:25:00,71.9,62.4,29.98,North,4,2.7,3.1,72,0.00,,,0.00,VWS V13.01,2013-06-14 12:25:00,
2013-06-14 07:30:00,72.3,63.2,29.98,NNE,33,0.0,3.6,73,0.00,,,0.00,VWS V13.01,2013-06-14 12:30:00,
2013-06-14 07:35:00,72.7,62.3,29.98,NNE,23,2.7,4.0,70,0.00,,,0.00,VWS V13.01,2013-06-14 12:35:00,
2013-06-14 07:40:00,72.8,62.1,29.98,NE,47,2.7,3.6,69,0.00,,,0.00,VWS V13.01,2013-06-14 12:40:00,
2013-06-14 07:44:00,73.2,62.4,29.98,ENE,70,2.2,2.7,69,0.00,,,0.00,VWS V13.01,2013-06-14 12:44:00,
2013-06-14 07:49:00,73.7,62.5,29.98,NE,39,2.7,2.7,68,0.00,,,0.00,VWS V13.01,2013-06-14 12:49:00,
2013-06-14 07:54:00,73.9,62.3,29.98,NE,53,2.7,2.7,67,0.00,,,0.00,VWS V13.01,2013-06-14 12:54:00,
2013-06-14 07:59:00,74.5,62.4,29.98,ENE,57,3.1,3.6,66,0.00,,,0.00,VWS V13.01,2013-06-14 12:59:00,
2013-06-14 08:04:00,74.6,62.1,29.98,North,10,2.7,3.1,65,0.00,,,0.00,VWS V13.01,2013-06-14 13:04:00,
2013-06-14 08:09:00,75.2,62.6,29.98,North,9,2.7,3.6,65,0.00,,,0.00,VWS V13.01,2013-06-14 13:09:00,
2013-06-14 08:14:00,75.4,61.9,30.01,NE,36,3.6,3.6,63,0.00,,,0.00,VWS V13.01,2013-06-14 13:14:00,
2013-06-14 08:19:00,75.5,62.1,30.01,NE,43,3.1,4.9,63,0.00,,,0.00,VWS V13.01,2013-06-14 13:19:00,
2013-06-14 08:24:00,75.5,61.6,30.01,NE,34,3.1,5.8,62,0.00,,,0.00,VWS V13.01,2013-06-14 13:24:00,
2013-06-14 08:29:00,75.5,61.2,30.01,NE,45,0.0,3.6,61,0.00,,,0.00,VWS V13.01,2013-06-14 13:29:00,
2013-06-14 08:34:00,75.7,61.8,30.01,ESE,105,3.1,3.1,62,0.00,,,0.00,VWS V13.01,2013-06-14 13:34:00,
2013-06-14 08:39:00,75.9,61.5,30.01,East,99,2.7,3.1,61,0.00,,,0.00,VWS V13.01,2013-06-14 13:39:00,
2013-06-14 08:44:00,75.9,61.5,30.01,ESE,106,2.2,3.1,61,0.00,,,0.00,VWS V13.01,2013-06-14 13:44:00,
2013-06-14 08:49:00,76.3,62.3,30.01,SE,143,5.4,5.4,62,0.00,,,0.00,VWS V13.01,2013-06-14 13:49:00,
2013-06-14 08:54:00,76.3,61.4,30.01,ESE,102,3.6,4.9,60,0.00,,,0.00,VWS V13.01,2013-06-14 13:54:00,
2013-06-14 08:59:00,76.4,61.5,30.01,ENE,67,7.2,7.2,60,0.00,,,0.00,VWS V13.01,2013-06-14 13:59:00,
2013-06-14 09:04:00,76.3,61.8,30.01,ESE,118,4.0,5.8,61,0.00,,,0.00,VWS V13.01,2013-06-14 14:04:00,
2013-06-14 09:09:00,76.1,61.2,30.01,NNE,28,3.1,3.1,60,0.00,,,0.00,VWS V13.01,2013-06-14 14:09:00,
2013-06-14 09:14:00,76.1,61.7,30.01,ENE,63,3.1,3.1,61,0.00,,,0.00,VWS V13.01,2013-06-14 14:14:00,
2013-06-14 09:19:00,76.1,61.2,30.01,NE,43,4.9,5.4,60,0.00,,,0.00,VWS V13.01,2013-06-14 14:19:00,
2013-06-14 09:24:00,76.3,61.4,30.01,NNE,27,3.1,4.5,60,0.00,,,0.00,VWS V13.01,2013-06-14 14:24:00,
2013-06-14 09:29:00,76.3,61.4,30.01,East,84,3.6,4.9,60,0.00,,,0.00,VWS V13.01,2013-06-14 14:29:00,
2013-06-14 09:34:00,76.4,62.0,30.01,ENE,63,4.0,5.4,61,0.00,,,0.00,VWS V13.01,2013-06-14 14:34:00,
2013-06-14 09:39:00,76.8,61.9,30.01,ESE,117,3.6,4.0,60,0.00,,,0.00,VWS V13.01,2013-06-14 14:39:00,
2013-06-14 09:44:00,76.8,60.4,30.01,SE,143,3.6,6.3,57,0.00,,,0.00,VWS V13.01,2013-06-14 14:44:00,
2013-06-14 09:49:00,77.0,60.6,30.01,ESE,106,4.9,6.3,57,0.00,,,0.00,VWS V13.01,2013-06-14 14:49:00,
2013-06-14 09:54:00,77.7,61.3,30.01,ESE,117,4.9,4.9,57,0.00,,,0.00,VWS V13.01,2013-06-14 14:54:00,
2013-06-14 09:59:00,78.1,60.6,30.01,ESE,114,5.4,8.1,55,0.00,,,0.00,VWS V13.01,2013-06-14 14:59:00,
2013-06-14 10:04:00,77.9,59.4,30.01,NE,44,4.9,5.4,53,0.00,,,0.00,VWS V13.01,2013-06-14 15:04:00,
2013-06-14 10:09:00,78.2,59.7,30.01,East,84,5.4,5.4,53,0.00,,,0.00,VWS V13.01,2013-06-14 15:09:00,
2013-06-14 10:14:00,78.4,59.4,30.01,East,99,5.8,6.3,52,0.00,,,0.00,VWS V13.01,2013-06-14 15:14:00,
2013-06-14 10:19:00,78.6,60.1,30.01,ESE,120,3.1,4.0,53,0.00,,,0.00,VWS V13.01,2013-06-14 15:19:00,
2013-06-14 10:24:00,78.8,59.7,30.01,East,81,3.6,5.8,52,0.00,,,0.00,VWS V13.01,2013-06-14 15:24:00,
2013-06-14 10:29:00,79.0,59.8,30.01,ENE,63,2.2,5.4,52,0.00,,,0.00,VWS V13.01,2013-06-14 15:29:00,
2013-06-14 10:34:00,79.3,60.7,30.01,ESE,118,4.0,4.9,53,0.00,,,0.00,VWS V13.01,2013-06-14 15:34:00,
2013-06-14 10:39:00,79.7,60.5,30.01,SE,135,3.6,3.6,52,0.00,,,0.00,VWS V13.01,2013-06-14 15:39:00,
2013-06-14 10:44:00,79.9,61.8,30.01,NE,40,3.1,3.1,54,0.00,,,0.00,VWS V13.01,2013-06-14 15:44:00,
2013-06-14 10:49:00,80.2,61.0,30.01,ESE,122,4.0,4.0,52,0.00,,,0.00,VWS V13.01,2013-06-14 15:49:00,
2013-06-14 10:54:00,80.8,61.0,30.01,East,83,4.0,4.0,51,0.00,,,0.00,VWS V13.01,2013-06-14 15:54:00,
2013-06-14 10:59:00,80.8,62.0,30.01,NE,42,5.4,5.4,53,0.00,,,0.00,VWS V13.01,2013-06-14 15:59:00,
2013-06-14 11:04:00,81.3,61.5,30.01,East,97,6.3,6.3,51,0.00,,,0.00,VWS V13.01,2013-06-14 16:04:00,
2013-06-14 11:09:00,81.3,61.5,30.01,ESE,114,4.9,4.9,51,0.00,,,0.00,VWS V13.01,2013-06-14 16:09:00,
2013-06-14 11:14:00,81.3,61.5,30.01,ESE,120,3.1,3.6,51,0.00,,,0.00,VWS V13.01,2013-06-14 16:14:00,
2013-06-14 11:19:00,81.3,61.5,30.01,SE,125,3.6,3.6,51,0.00,,,0.00,VWS V13.01,2013-06-14 16:19:00,
2013-06-14 11:24:00,82.0,62.1,30.01,West,268,2.2,3.1,51,0.00,,,0.00,VWS V13.01,2013-06-14 16:24:00,
2013-06-14 11:29:00,83.3,62.7,30.01,ENE,75,4.0,4.0,50,0.00,,,0.00,VWS V13.01,2013-06-14 16:29:00,
2013-06-14 11:34:00,83.8,62.6,30.01,North,1,4.9,5.4,49,0.00,,,0.00,VWS V13.01,2013-06-14 16:34:00,
2013-06-14 11:39:00,83.5,62.3,30.01,East,83,2.7,2.7,49,0.00,,,0.00,VWS V13.01,2013-06-14 16:39:00,
2013-06-14 11:44:00,82.7,61.7,30.01,NE,52,3.1,3.6,49,0.00,,,0.00,VWS V13.01,2013-06-14 16:44:00,
2013-06-14 11:49:00,82.4,61.9,30.01,NE,38,3.6,5.4,50,0.00,,,0.00,VWS V13.01,2013-06-14 16:49:00,
2013-06-14 11:54:00,82.7,61.7,30.01,East,100,3.6,8.1,49,0.00,,,0.00,VWS V13.01,2013-06-14 16:54:00,
2013-06-14 11:59:00,82.7,61.7,30.01,ENE,62,2.7,3.6,49,0.00,,,0.00,VWS V13.01,2013-06-14 16:59:00,
2013-06-14 12:04:00,82.9,61.8,30.01,South,179,0.0,0.0,49,0.00,,,0.00,VWS V13.01,2013-06-14 17:04:00,
2013-06-14 12:09:00,82.9,61.8,30.01,SE,127,4.0,4.0,49,0.00,,,0.00,VWS V13.01,2013-06-14 17:09:00,
2013-06-14 12:14:00,83.3,62.2,30.01,NE,49,0.0,0.0,49,0.00,,,0.00,VWS V13.01,2013-06-14 17:14:00,
2013-06-14 12:19:00,83.5,62.3,30.01,SE,133,5.8,5.8,49,0.00,,,0.00,VWS V13.01,2013-06-14 17:19:00,
2013-06-14 12:24:00,83.3,62.2,30.01,ENE,76,0.0,0.0,49,0.00,,,0.00,VWS V13.01,2013-06-14 17:24:00,
2013-06-14 12:29:00,84.2,63.0,30.01,NE,46,3.6,3.6,49,0.00,,,0.00,VWS V13.01,2013-06-14 17:29:00,
2013-06-14 12:34:00,84.4,63.1,29.98,ESE,117,3.6,4.0,49,0.00,,,0.00,VWS V13.01,2013-06-14 17:34:00,
2013-06-14 12:39:00,84.2,63.0,29.98,North,7,2.7,4.0,49,0.00,,,0.00,VWS V13.01,2013-06-14 17:39:00,
2013-06-14 12:44:00,84.9,63.0,29.98,NNE,23,4.9,5.4,48,0.00,,,0.00,VWS V13.01,2013-06-14 17:44:00,
2013-06-14 12:49:00,84.9,63.0,29.98,ENE,57,2.7,5.8,48,0.00,,,0.00,VWS V13.01,2013-06-14 17:49:00,
2013-06-14 12:54:00,84.5,62.7,29.98,NNW,338,2.2,3.1,48,0.00,,,0.00,VWS V13.01,2013-06-14 17:54:00,
2013-06-14 12:59:00,85.1,64.4,29.98,NE,51,3.1,3.1,50,0.00,,,0.00,VWS V13.01,2013-06-14 17:59:00,
2013-06-14 13:04:00,86.0,64.0,29.98,ENE,65,3.6,3.6,48,0.00,,,0.00,VWS V13.01,2013-06-14 18:04:00,
2013-06-14 13:09:00,85.1,63.8,29.98,SSE,166,5.4,5.8,49,0.00,,,0.00,VWS V13.01,2013-06-14 18:09:00,
2013-06-14 13:14:00,84.2,63.0,29.98,SSE,154,4.0,5.8,49,0.00,,,0.00,VWS V13.01,2013-06-14 18:14:00,
2013-06-14 13:19:00,84.0,62.8,29.98,SSE,152,3.6,4.9,49,0.00,,,0.00,VWS V13.01,2013-06-14 18:19:00,
2013-06-14 13:24:00,83.6,63.0,29.98,South,175,5.4,5.8,50,0.00,,,0.00,VWS V13.01,2013-06-14 18:24:00,
2013-06-14 13:29:00,83.8,63.2,29.98,South,188,4.0,5.8,50,0.00,,,0.00,VWS V13.01,2013-06-14 18:29:00,
2013-06-14 13:34:00,84.0,63.4,29.98,ESE,114,4.9,5.4,50,0.00,,,0.00,VWS V13.01,2013-06-14 18:34:00,
2013-06-14 13:39:00,84.2,63.5,29.98,ESE,123,4.0,4.0,50,0.00,,,0.00,VWS V13.01,2013-06-14 18:39:00,
2013-06-14 13:43:00,85.1,64.4,29.95,ENE,64,2.7,3.1,50,0.00,,,0.00,VWS V13.01,2013-06-14 18:43:00,
2013-06-14 13:48:00,86.0,64.6,29.95,NNE,27,3.1,4.9,49,0.00,,,0.00,VWS V13.01,2013-06-14 18:48:00,
2013-06-14 13:53:00,86.2,64.2,29.95,South,170,4.5,7.6,48,0.00,,,0.00,VWS V13.01,2013-06-14 18:53:00,
2013-06-14 13:58:00,85.6,64.3,29.95,SE,134,5.8,5.8,49,0.00,,,0.00,VWS V13.01,2013-06-14 18:58:00,
2013-06-14 14:03:00,85.3,64.5,29.95,SE,133,4.0,5.4,50,0.00,,,0.00,VWS V13.01,2013-06-14 19:03:00,
2013-06-14 14:08:00,85.6,64.9,29.95,SE,128,3.1,4.0,50,0.00,,,0.00,VWS V13.01,2013-06-14 19:08:00,
2013-06-14 14:13:00,85.8,64.4,29.95,SSW,200,5.4,5.4,49,0.00,,,0.00,VWS V13.01,2013-06-14 19:13:00,
2013-06-14 14:18:00,85.6,64.9,29.95,ESE,106,3.6,6.3,50,0.00,,,0.00,VWS V13.01,2013-06-14 19:18:00,
2013-06-14 14:23:00,85.3,64.0,29.95,SSE,159,3.1,4.0,49,0.00,,,0.00,VWS V13.01,2013-06-14 19:23:00,
2013-06-14 14:28:00,85.6,64.9,29.95,North,350,0.0,2.7,50,0.00,,,0.00,VWS V13.01,2013-06-14 19:28:00,
2013-06-14 14:33:00,86.5,64.5,29.95,NE,50,4.0,5.8,48,0.00,,,0.00,VWS V13.01,2013-06-14 19:33:00,
2013-06-14 14:38:00,86.7,65.3,29.95,SSW,212,2.7,4.9,49,0.00,,,0.00,VWS V13.01,2013-06-14 19:38:00,
2013-06-14 14:43:00,86.9,65.4,29.95,East,81,4.0,4.9,49,0.00,,,0.00,VWS V13.01,2013-06-14 19:43:00,
2013-06-14 14:48:00,87.1,65.0,29.95,ESE,104,2.7,3.1,48,0.00,,,0.00,VWS V13.01,2013-06-14 19:48:00,
2013-06-14 14:53:00,87.1,65.0,29.95,SE,130,3.6,5.4,48,0.00,,,0.00,VWS V13.01,2013-06-14 19:53:00,
2013-06-14 14:58:00,86.7,64.7,29.95,SE,131,3.6,3.6,48,0.00,,,0.00,VWS V13.01,2013-06-14 19:58:00,
2013-06-14 15:03:00,86.5,64.5,29.95,North,8,3.1,3.1,48,0.00,,,0.00,VWS V13.01,2013-06-14 20:03:00,
2013-06-14 15:08:00,87.1,65.0,29.95,ENE,70,2.7,4.0,48,0.00,,,0.00,VWS V13.01,2013-06-14 20:08:00,
2013-06-14 15:13:00,86.7,64.7,29.95,NNE,30,3.6,4.0,48,0.00,,,0.00,VWS V13.01,2013-06-14 20:13:00,
2013-06-14 15:18:00,87.4,65.3,29.95,SSE,150,2.2,3.1,48,0.00,,,0.00,VWS V13.01,2013-06-14 20:18:00,
2013-06-14 15:23:00,88.1,65.4,29.95,East,98,2.7,6.3,47,0.00,,,0.00,VWS V13.01,2013-06-14 20:23:00,
2013-06-14 15:28:00,88.3,66.2,29.95,North,9,2.7,3.1,48,0.00,,,0.00,VWS V13.01,2013-06-14 20:28:00,
2013-06-14 15:33:00,88.9,66.0,29.95,NNE,25,2.7,2.7,47,0.00,,,0.00,VWS V13.01,2013-06-14 20:33:00,
2013-06-14 15:38:00,89.0,66.2,29.95,ESE,122,3.6,7.6,47,0.00,,,0.00,VWS V13.01,2013-06-14 20:38:00,
2013-06-14 15:43:00,87.8,65.7,29.95,ENE,60,4.0,4.0,48,0.00,,,0.00,VWS V13.01,2013-06-14 20:43:00,
2013-06-14 15:48:00,87.4,65.3,29.92,East,100,0.0,3.6,48,0.00,,,0.00,VWS V13.01,2013-06-14 20:48:00,
2013-06-14 15:53:00,87.6,65.5,29.92,ESE,120,0.0,3.6,48,0.00,,,0.00,VWS V13.01,2013-06-14 20:53:00,
2013-06-14 15:58:00,88.1,66.0,29.92,ENE,76,5.4,5.4,48,0.00,,,0.00,VWS V13.01,2013-06-14 20:58:00,
2013-06-14 16:03:00,88.1,66.0,29.92,ESE,108,4.0,5.8,48,0.00,,,0.00,VWS V13.01,2013-06-14 21:03:00,
2013-06-14 16:08:00,87.8,65.7,29.92,ESE,121,5.8,5.8,48,0.00,,,0.00,VWS V13.01,2013-06-14 21:08:00,
2013-06-14 16:13:00,87.2,65.2,29.92,SSE,158,4.0,8.1,48,0.00,,,0.00,VWS V13.01,2013-06-14 21:13:00,
2013-06-14 16:18:00,87.2,65.2,29.92,SSE,147,5.4,5.4,48,0.00,,,0.00,VWS V13.01,2013-06-14 21:18:00,
2013-06-14 16:23:00,87.6,65.5,29.92,South,184,4.0,4.9,48,0.00,,,0.00,VWS V13.01,2013-06-14 21:23:00,
2013-06-14 16:28:00,87.2,65.2,29.92,SE,140,5.8,5.8,48,0.00,,,0.00,VWS V13.01,2013-06-14 21:28:00,
2013-06-14 16:33:00,87.1,65.0,29.92,ESE,114,3.6,4.9,48,0.00,,,0.00,VWS V13.01,2013-06-14 21:33:00,
2013-06-14 16:38:00,86.9,65.4,29.92,SE,129,3.6,4.9,49,0.00,,,0.00,VWS V13.01,2013-06-14 21:38:00,
2013-06-14 16:43:00,86.9,65.4,29.92,SSE,154,5.4,5.4,49,0.00,,,0.00,VWS V13.01,2013-06-14 21:43:00,
2013-06-14 16:48:00,86.9,64.8,29.92,SSE,147,6.3,6.3,48,0.00,,,0.00,VWS V13.01,2013-06-14 21:48:00,
2013-06-14 16:53:00,86.9,64.8,29.92,South,188,4.0,4.9,48,0.00,,,0.00,VWS V13.01,2013-06-14 21:53:00,
2013-06-14 16:58:00,86.9,65.4,29.92,ENE,74,2.7,3.6,49,0.00,,,0.00,VWS V13.01,2013-06-14 21:58:00,
2013-06-14 17:03:00,86.7,64.7,29.92,SSE,150,3.6,6.3,48,0.00,,,0.00,VWS V13.01,2013-06-14 22:03:00,
2013-06-14 17:08:00,86.7,64.7,29.92,SE,132,3.1,3.1,48,0.00,,,0.00,VWS V13.01,2013-06-14 22:08:00,
2013-06-14 17:13:00,86.9,64.8,29.92,East,90,4.9,5.8,48,0.00,,,0.00,VWS V13.01,2013-06-14 22:13:00,
2013-06-14 17:18:00,86.7,65.3,29.92,ESE,112,3.6,3.6,49,0.00,,,0.00,VWS V13.01,2013-06-14 22:18:00,
2013-06-14 17:23:00,86.7,64.7,29.92,SE,132,3.6,4.0,48,0.00,,,0.00,VWS V13.01,2013-06-14 22:23:00,
2013-06-14 17:28:00,86.5,65.1,29.92,SSE,167,6.3,6.3,49,0.00,,,0.00,VWS V13.01,2013-06-14 22:28:00,
2013-06-14 17:33:00,86.7,65.3,29.92,ESE,112,4.0,4.0,49,0.00,,,0.00,VWS V13.01,2013-06-14 22:33:00,
2013-06-14 17:38:00,86.5,65.1,29.92,SSE,159,3.1,5.8,49,0.00,,,0.00,VWS V13.01,2013-06-14 22:38:00,
2013-06-14 17:43:00,86.3,64.3,29.92,SSE,153,7.6,7.6,48,0.00,,,0.00,VWS V13.01,2013-06-14 22:43:00,
2013-06-14 17:48:00,86.3,64.9,29.92,ESE,121,5.8,6.3,49,0.00,,,0.00,VWS V13.01,2013-06-14 22:48:00,
2013-06-14 17:53:00,86.2,64.8,29.92,ENE,78,6.7,6.7,49,0.00,,,0.00,VWS V13.01,2013-06-14 22:53:00,
2013-06-14 17:58:00,86.2,64.8,29.92,ESE,118,4.9,4.9,49,0.00,,,0.00,VWS V13.01,2013-06-14 22:58:00,
2013-06-14 18:03:00,86.2,64.2,29.92,SE,131,4.9,6.3,48,0.00,,,0.00,VWS V13.01,2013-06-14 23:03:00,
2013-06-14 18:08:00,86.0,64.0,29.92,ESE,107,3.6,6.3,48,0.00,,,0.00,VWS V13.01,2013-06-14 23:08:00,
2013-06-14 18:13:00,86.0,64.0,29.92,ESE,107,3.1,5.4,48,0.00,,,0.00,VWS V13.01,2013-06-14 23:13:00,
2013-06-14 18:18:00,85.8,63.9,29.92,ESE,113,4.9,5.4,48,0.00,,,0.00,VWS V13.01,2013-06-14 23:18:00,
2013-06-14 18:23:00,85.8,64.4,29.92,ENE,75,3.6,4.9,49,0.00,,,0.00,VWS V13.01,2013-06-14 23:23:00,
2013-06-14 18:28:00,85.8,63.9,29.92,ESE,109,3.6,6.7,48,0.00,,,0.00,VWS V13.01,2013-06-14 23:28:00,
2013-06-14 18:33:00,85.6,64.3,29.92,East,87,3.6,6.7,49,0.00,,,0.00,VWS V13.01,2013-06-14 23:33:00,
2013-06-14 18:38:00,85.6,64.3,29.92,SSE,150,3.6,4.9,49,0.00,,,0.00,VWS V13.01,2013-06-14 23:38:00,
2013-06-14 18:43:00,85.4,64.1,29.92,SE,126,5.4,6.7,49,0.00,,,0.00,VWS V13.01,2013-06-14 23:43:00,
2013-06-14 18:48:00,85.3,64.0,29.92,ESE,104,4.0,6.3,49,0.00,,,0.00,VWS V13.01,2013-06-14 23:48:00,
2013-06-14 18:53:00,85.1,63.8,29.92,SE,125,4.0,5.4,49,0.00,,,0.00,VWS V13.01,2013-06-14 23:53:00,
2013-06-14 18:58:00,85.1,63.8,29.92,ESE,112,6.3,6.3,49,0.00,,,0.00,VWS V13.01,2013-06-14 23:58:00,
2013-06-14 19:03:00,84.9,63.6,29.92,ESE,115,3.1,3.6,49,0.00,,,0.00,VWS V13.01,2013-06-15 00:03:00,
2013-06-14 19:08:00,84.7,63.5,29.92,East,89,4.9,6.3,49,0.00,,,0.00,VWS V13.01,2013-06-15 00:08:00,
2013-06-14 19:13:00,84.5,63.3,29.92,East,94,7.6,7.6,49,0.00,,,0.00,VWS V13.01,2013-06-15 00:13:00,
2013-06-14 19:18:00,84.4,63.7,29.92,SE,128,4.9,4.9,50,0.00,,,0.00,VWS V13.01,2013-06-15 00:18:00,
2013-06-14 19:23:00,84.2,63.5,29.92,East,90,2.2,2.7,50,0.00,,,0.00,VWS V13.01,2013-06-15 00:23:00,
2013-06-14 19:28:00,84.0,63.4,29.92,East,96,3.6,3.6,50,0.00,,,0.00,VWS V13.01,2013-06-15 00:28:00,
2013-06-14 19:33:00,83.8,63.8,29.92,East,83,3.6,5.4,51,0.00,,,0.00,VWS V13.01,2013-06-15 00:33:00,
2013-06-14 19:38:00,83.5,63.5,29.92,ENE,78,2.2,4.0,51,0.00,,,0.00,VWS V13.01,2013-06-15 00:38:00,
2013-06-14 19:42:00,83.3,63.3,29.92,East,80,2.2,2.7,51,0.00,,,0.00,VWS V13.01,2013-06-15 00:42:00,
2013-06-14 19:47:00,83.1,63.7,29.92,East,84,6.3,6.3,52,0.00,,,0.00,VWS V13.01,2013-06-15 00:47:00,
2013-06-14 19:52:00,82.9,63.0,29.92,East,92,2.7,3.6,51,0.00,,,0.00,VWS V13.01,2013-06-15 00:52:00,
2013-06-14 19:57:00,82.6,63.2,29.92,ESE,102,3.1,3.6,52,0.00,,,0.00,VWS V13.01,2013-06-15 00:57:00,
2013-06-14 20:02:00,82.4,63.0,29.92,ENE,76,2.7,3.1,52,0.00,,,0.00,VWS V13.01,2013-06-15 01:02:00,
2013-06-14 20:07:00,82.2,62.8,29.92,ENE,68,2.7,2.7,52,0.00,,,0.00,VWS V13.01,2013-06-15 01:07:00,
2013-06-14 20:12:00,82.0,62.7,29.92,East,101,2.2,2.2,52,0.00,,,0.00,VWS V13.01,2013-06-15 01:12:00,
2013-06-14 20:17:00,81.8,63.0,29.92,East,101,0.0,0.0,53,0.00,,,0.00,VWS V13.01,2013-06-15 01:17:00,
2013-06-14 20:22:00,81.5,62.7,29.92,ENE,66,2.2,2.2,53,0.00,,,0.00,VWS V13.01,2013-06-15 01:22:00,
2013-06-14 20:27:00,81.1,62.4,29.92,East,94,0.0,0.0,53,0.00,,,0.00,VWS V13.01,2013-06-15 01:27:00,
2013-06-14 20:32:00,80.8,62.6,29.92,ENE,70,2.2,3.1,54,0.00,,,0.00,VWS V13.01,2013-06-15 01:32:00,
2013-06-14 20:38:00,80.6,62.4,29.92,ESE,102,3.1,3.1,54,0.00,,,0.00,VWS V13.01,2013-06-15 01:38:00,
2013-06-14 20:43:00,80.4,62.2,29.92,ENE,57,0.0,0.0,54,0.00,,,0.00,VWS V13.01,2013-06-15 01:43:00,
2013-06-14 20:48:00,79.9,62.8,29.92,ENE,69,0.0,0.0,56,0.00,,,0.00,VWS V13.01,2013-06-15 01:48:00,
2013-06-14 20:53:00,79.7,62.6,29.92,ENE,69,0.0,0.0,56,0.00,,,0.00,VWS V13.01,2013-06-15 01:53:00,
2013-06-14 20:58:00,79.3,62.8,29.92,NE,40,0.0,2.7,57,0.00,,,0.00,VWS V13.01,2013-06-15 01:58:00,
2013-06-14 21:03:00,79.3,62.8,29.92,East,80,0.0,0.0,57,0.00,,,0.00,VWS V13.01,2013-06-15 02:03:00,
2013-06-14 21:08:00,79.1,62.6,29.92,NE,49,0.0,2.2,57,0.00,,,0.00,VWS V13.01,2013-06-15 02:08:00,
2013-06-14 21:13:00,79.1,62.6,29.92,NE,49,0.0,0.0,57,0.00,,,0.00,VWS V13.01,2013-06-15 02:13:00,
2013-06-14 21:18:00,78.8,62.3,29.92,NE,51,0.0,2.2,57,0.00,,,0.00,VWS V13.01,2013-06-15 02:18:00,
2013-06-14 21:23:00,78.6,62.6,29.92,NNE,27,0.0,0.0,58,0.00,,,0.00,VWS V13.01,2013-06-15 02:23:00,
2013-06-14 21:28:00,78.4,62.9,29.92,North,11,0.0,0.0,59,0.00,,,0.00,VWS V13.01,2013-06-15 02:28:00,
2013-06-14 21:32:00,78.1,63.1,29.95,North,6,0.0,2.7,60,0.00,,,0.00,VWS V13.01,2013-06-15 02:32:00,
2013-06-14 21:37:00,77.9,62.9,29.95,NNE,15,0.0,0.0,60,0.00,,,0.00,VWS V13.01,2013-06-15 02:37:00,
2013-06-14 21:42:00,77.5,63.0,29.95,NNE,15,0.0,0.0,61,0.00,,,0.00,VWS V13.01,2013-06-15 02:42:00,
2013-06-14 21:47:00,77.2,62.7,29.95,NNE,15,0.0,0.0,61,0.00,,,0.00,VWS V13.01,2013-06-15 02:47:00,
2013-06-14 21:52:00,76.8,62.3,29.95,NNE,15,0.0,0.0,61,0.00,,,0.00,VWS V13.01,2013-06-15 02:52:00,
2013-06-14 21:57:00,76.6,62.2,29.95,NNE,15,0.0,0.0,61,0.00,,,0.00,VWS V13.01,2013-06-15 02:57:00,
2013-06-14 22:02:00,76.4,62.0,29.95,NNE,15,0.0,0.0,61,0.00,,,0.00,VWS V13.01,2013-06-15 03:02:00,
2013-06-14 22:07:00,76.1,61.7,29.95,NNE,15,0.0,0.0,61,0.00,,,0.00,VWS V13.01,2013-06-15 03:07:00,
2013-06-14 22:12:00,75.9,61.5,29.95,NNE,23,0.0,0.0,61,0.00,,,0.00,VWS V13.01,2013-06-15 03:12:00,
2013-06-14 22:17:00,75.7,61.8,29.95,NNE,23,0.0,0.0,62,0.00,,,0.00,VWS V13.01,2013-06-15 03:17:00,
2013-06-14 22:22:00,75.5,61.6,29.95,NNE,23,0.0,0.0,62,0.00,,,0.00,VWS V13.01,2013-06-15 03:22:00,
2013-06-14 22:27:00,75.4,61.5,29.95,NNE,23,0.0,0.0,62,0.00,,,0.00,VWS V13.01,2013-06-15 03:27:00,
2013-06-14 22:32:00,75.0,61.1,29.95,NNE,23,0.0,0.0,62,0.00,,,0.00,VWS V13.01,2013-06-15 03:32:00,
2013-06-14 22:37:00,75.0,61.1,29.95,NNE,23,0.0,0.0,62,0.00,,,0.00,VWS V13.01,2013-06-15 03:37:00,
2013-06-14 22:42:00,75.0,61.6,29.95,NNE,23,0.0,0.0,63,0.00,,,0.00,VWS V13.01,2013-06-15 03:42:00,
2013-06-14 22:47:00,74.8,61.4,29.95,NNE,23,0.0,0.0,63,0.00,,,0.00,VWS V13.01,2013-06-15 03:47:00,
2013-06-14 22:52:00,74.8,61.8,29.95,NNE,23,0.0,0.0,64,0.00,,,0.00,VWS V13.01,2013-06-15 03:52:00,
2013-06-14 22:57:00,74.5,61.9,29.95,NNE,23,0.0,0.0,65,0.00,,,0.00,VWS V13.01,2013-06-15 03:57:00,
2013-06-14 23:01:00,74.1,61.6,29.95,NNE,23,0.0,0.0,65,0.00,,,0.00,VWS V13.01,2013-06-15 04:01:00,
2013-06-14 23:06:00,73.9,61.9,29.95,NNE,23,0.0,0.0,66,0.00,,,0.00,VWS V13.01,2013-06-15 04:06:00,
2013-06-14 23:11:00,73.7,61.7,29.95,NNE,23,0.0,0.0,66,0.00,,,0.00,VWS V13.01,2013-06-15 04:11:00,
2013-06-14 23:16:00,73.7,62.1,29.95,NNE,23,0.0,0.0,67,0.00,,,0.00,VWS V13.01,2013-06-15 04:16:00,
2013-06-14 23:21:00,73.7,62.1,29.95,NNE,23,0.0,0.0,67,0.00,,,0.00,VWS V13.01,2013-06-15 04:21:00,
2013-06-14 23:26:00,73.6,61.9,29.95,NNE,23,0.0,0.0,67,0.00,,,0.00,VWS V13.01,2013-06-15 04:26:00,
2013-06-14 23:31:00,73.6,61.5,29.98,NNE,23,0.0,0.0,66,0.00,,,0.00,VWS V13.01,2013-06-15 04:31:00,
2013-06-14 23:36:00,73.6,61.5,29.98,NNE,19,2.2,2.2,66,0.00,,,0.00,VWS V13.01,2013-06-15 04:36:00,
2013-06-14 23:41:00,73.6,61.9,29.98,NNE,19,0.0,0.0,67,0.00,,,0.00,VWS V13.01,2013-06-15 04:41:00,
2013-06-14 23:46:00,73.4,61.8,29.98,NNE,19,0.0,0.0,67,0.00,,,0.00,VWS V13.01,2013-06-15 04:46:00,
2013-06-14 23:51:00,73.2,62.0,29.98,NNE,19,0.0,0.0,68,0.00,,,0.00,VWS V13.01,2013-06-15 04:51:00,
2013-06-14 23:56:00,72.7,62.3,29.98,NNE,19,0.0,0.0,70,0.00,,,0.00,VWS V13.01,2013-06-15 04:56:00,